sat.trackr.live / text

‹ back to catalog

STARLINK-1269

NORAD 45197 · 2020-012V

PAYLOAD ACTIVE UNKNOWN

§ Identity

Operator
Country
US
Launch date
2020-02-17
Launch site
AFETR
Launch vehicle
Mass (kg)
RCS (m²)

Purposes: comms

External: N2YO · Heavens-Above · Gunter

§ Orbital elements

Epoch: 2026-05-24T23:32:18.894336Z

Period
93.90 min
Inclination
53.1581°
Eccentricity
0.0003039
Mean motion
15.33600011 rev/d
Perigee alt
463.0 km
Apogee alt
467.2 km
Semi-major
6,843.2 km
B*
1.1613e-3
RAAN
44.6202°
Arg perigee
83.7580°
Mean anomaly
276.3769°
Rev number
34,660

§ Raw data

STARLINK-12691 45197U 20012V   26144.98077424  .00038077  00000+0  11613-2 0  99972 45197  53.1581  44.6202 0003039  83.7580 276.3769 15.33600011346604

JSON: /api/v1/satellites/45197 · /tle

For live sub-satellite position, see the globe view (requires WebGL).

§ Visibility from observer

Set your observer location to see the next 7 days of passes ≥ 10°. The values pass through the URL so the page stays shareable.

No JS? Fill the form by hand. The geolocation button needs JavaScript.